Location: Oregon Star Party
(44.2935°N, 120.1332°W)
Time: 17:13:05
(UTC-07:00)

Amateur Radio Satellites - All Passes

Search period start: 16 October 2017 16:43
Search period end: 17 October 2017 16:43
Location: Oregon Star Party, 44.2935°N, 120.1332°W

Satellite Date Start Highest point End Downlink Frequencies (MHz)
Time Altitude Azimuth
UKube-1 16 Oct 16:45:50 16:46:51 11° 302° (WNW) 16:47:51 .
PCSat 16 Oct 16:52:41 16:56:18 18° 37° (NE) 16:59:54 145.827
XW-2C 16 Oct 17:07:14 17:09:17 14° 64° (ENE) 17:11:22 145.795 - 145.815
AO-7 16 Oct 17:10:31 17:16:55 24° 267° (W) 17:23:23 .
CUTE-I 16 Oct 17:23:54 17:28:16 27° 63° (ENE) 17:32:40 437.470
nSIGHT-1 16 Oct 17:26:49 17:30:00 58° 28° (NNE) 17:33:10 .
ITAMSAT 1 16 Oct 17:28:15 17:30:16 12° 272° (W) 17:32:17 435.822/435.867
ITUPSAT 1 16 Oct 17:44:25 17:48:06 22° 297° (WNW) 17:51:46 437.325
HO-68 16 Oct 17:45:13 17:50:51 26° 56° (ENE) 17:56:30 435.675
ISS 16 Oct 17:48:45 17:52:02 78° 29° (NNE) 17:55:19 437.550
LilacSat-2 16 Oct 17:50:09 17:53:49 45° 73° (ENE) 17:57:30 437.200
SO-50 16 Oct 17:53:05 17:57:02 29° 245° (WSW) 18:01:01 436.795
XW-2F 16 Oct 17:54:17 17:57:53 43° 73° (ENE) 18:01:29 145.980 - 146.000
CUBESAT XI-V 16 Oct 17:54:59 17:59:27 52° 288° (WNW) 18:03:55 437.345
CUTE 1.7 + AOD 2 16 Oct 17:56:10 17:57:59 13° 62° (ENE) 17:59:49 437.475
MOZHAYETS 4 16 Oct 17:56:59 17:59:21 14° 300° (WNW) 18:01:42
KAITUO 1B 16 Oct 18:00:05 18:03:36 39° 72° (ENE) 18:07:07 145.475/437.950
XW-2D 16 Oct 18:02:59 18:06:45 62° 75° (ENE) 18:10:31 145.860 - 145.880
BEESAT 16 Oct 18:03:39 18:06:22 15° 300° (WNW) 18:09:06 436.000
CUBEBUG 2 16 Oct 18:11:48 18:13:54 13° 59° (ENE) 18:16:02 437.445
SEEDS 16 Oct 18:12:14 18:13:34 11° 61° (ENE) 18:14:56 437.485
XW-2B 16 Oct 18:16:14 18:20:03 86° 74° (ENE) 18:23:53 145.730 - 145.750
KKS-1 16 Oct 18:16:30 18:21:00 79° 103° (ESE) 18:25:30 437.445
DOVE 4 16 Oct 18:19:24 18:22:42 23° 267° (W) 18:26:05 437.250
NUDT-PHONESAT 16 Oct 18:21:16 18:24:59 70° 75° (ENE) 18:28:42 437.300
PCSat 16 Oct 18:35:07 18:40:35 81° 58° (ENE) 18:45:59 145.827
XW-2C 16 Oct 18:39:24 18:43:05 47° 261° (W) 18:46:47 145.795 - 145.815
AAUSAT CUBESAT 2 16 Oct 18:48:45 18:50:29 12° 62° (ENE) 18:52:12 437.432
UWE-3 16 Oct 18:57:19 19:00:46 21° 64° (ENE) 19:04:15 435.000/436.395/437.385
YUBILEINY 16 Oct 18:58:21 19:01:13 12° 50° (NE) 19:04:06 435.215
STARS 16 Oct 19:01:28 19:05:56 85° 285° (WNW) 19:10:22 437.465
CUTE-I 16 Oct 19:03:01 19:08:04 45° 261° (W) 19:13:11 437.470
nSIGHT-1 16 Oct 19:03:35 19:06:03 20° 224° (SW) 19:08:29 .
ISS 16 Oct 19:26:09 19:28:08 15° 227° (SW) 19:30:07 437.550
LilacSat-2 16 Oct 19:26:15 19:28:20 14° 269° (W) 19:30:24 437.200
XW-2A 16 Oct 19:27:55 19:31:08 39° 73° (ENE) 19:34:21 145.665 - 145.685
CUTE 1.7 + AOD 2 16 Oct 19:29:02 19:33:16 70° 258° (WSW) 19:37:30 437.475
XW-2F 16 Oct 19:30:09 19:32:13 14° 269° (W) 19:34:17 145.980 - 146.000
Oscar 11 16 Oct 19:30:12 19:32:37 15° 62° (ENE) 19:35:03 .
HO-68 16 Oct 19:30:48 19:37:56 72° 256° (WSW) 19:45:09 435.675
KAITUO 1B 16 Oct 19:35:32 19:37:46 15° 268° (W) 19:39:58 145.475/437.950
XW-2D 16 Oct 19:40:59 19:41:19 10° 271° (W) 19:41:38 145.860 - 145.880
SEEDS 16 Oct 19:44:29 19:48:39 76° 258° (WSW) 19:52:51 437.485
CUBEBUG 2 16 Oct 19:45:10 19:49:47 83° 256° (WSW) 19:54:34 437.445
KKS-1 16 Oct 19:55:01 19:56:55 13° 301° (WNW) 19:58:50 437.445
AO-73 16 Oct 20:00:11 20:04:29 42° 71° (ENE) 20:08:48 145.935
STRAND 1 16 Oct 20:18:23 20:23:28 54° 100° (E) 20:28:30 437.568
ZACube-1 16 Oct 20:19:19 20:23:52 74° 76° (ENE) 20:28:28 437.345
PCSat 16 Oct 20:20:14 20:23:15 15° 256° (WSW) 20:26:15 145.827
AAUSAT CUBESAT 2 16 Oct 20:21:19 20:25:23 66° 258° (WSW) 20:29:30 437.432
UWE-3 16 Oct 20:32:27 20:36:53 46° 262° (W) 20:41:24 435.000/436.395/437.385
O/OREOS (USA 219) 16 Oct 20:38:11 20:39:58 12° 97° (E) 20:41:46 437.305
STARS 16 Oct 20:40:53 20:41:31 10° 302° (WNW) 20:42:09 437.465
YUBILEINY 16 Oct 20:51:51 21:00:27 55° 75° (ENE) 21:09:03 435.215
DELFI C3 16 Oct 20:53:56 20:57:00 22° 67° (ENE) 21:00:04 145.870
XW-2A 16 Oct 21:02:26 21:04:02 13° 269° (W) 21:05:36 145.665 - 145.685
Oscar 11 16 Oct 21:03:59 21:08:16 61° 260° (W) 21:12:35 .
Max Valier Satellite 16 Oct 21:05:49 21:08:42 21° 67° (ENE) 21:11:34 145.860
EO-88 16 Oct 21:06:16 21:08:31 16° 65° (ENE) 21:10:46 145.990 - 145.960
BEESAT 3 16 Oct 21:22:38 21:26:10 29° 46° (NE) 21:29:38 437.485
HO-68 16 Oct 21:24:04 21:26:53 12° 275° (W) 21:29:42 435.675
AO-85 16 Oct 21:35:19 21:38:06 16° 37° (NE) 21:40:59 145.980
AO-73 16 Oct 21:37:23 21:40:52 21° 268° (W) 21:44:22 145.935
FO-29 16 Oct 21:42:06 21:48:41 58° 101° (E) 21:55:59 435.910
STRAND 1 16 Oct 21:58:23 22:02:15 22° 298° (WNW) 22:06:05 437.568
ZACube-1 16 Oct 21:58:48 22:00:39 12° 272° (W) 22:02:31 437.345
LO-87 16 Oct 22:10:01 22:11:24 12° 63° (ENE) 22:12:47 145.935 - 145.965
O/OREOS (USA 219) 16 Oct 22:14:10 22:18:43 73° 295° (WNW) 22:23:19 437.305
DELFI C3 16 Oct 22:28:10 22:31:36 29° 264° (W) 22:35:04 145.870
ESTCUBE 1 16 Oct 22:29:16 22:32:21 19° 63° (ENE) 22:35:27 437.505/2401.250
BEESAT 2 16 Oct 22:33:15 22:37:11 46° 50° (NE) 22:41:02 435.950
EO-88 16 Oct 22:38:26 22:41:51 38° 262° (W) 22:45:18 145.990 - 145.960
Max Valier Satellite 16 Oct 22:39:06 22:42:21 28° 264° (W) 22:45:39 145.860
UNISAT 6 16 Oct 22:48:00 22:52:39 64° 100° (E) 22:57:10 437.425
YUBILEINY 16 Oct 22:49:12 22:56:52 36° 276° (W) 23:04:34 435.215
BEESAT 3 16 Oct 23:00:12 23:03:41 30° 244° (WSW) 23:07:05 437.485
TIGRISAT 16 Oct 23:03:57 23:08:39 85° 103° (ESE) 23:13:13 435.000
AO-85 16 Oct 23:14:34 23:19:06 85° 54° (NE) 23:23:59 145.980
AIST 2D 16 Oct 23:26:19 23:28:33 16° 92° (E) 23:30:46 435.315
FO-29 16 Oct 23:27:50 23:33:26 30° 296° (WNW) 23:39:32 435.910
PRISM 16 Oct 23:32:06 23:36:14 83° 104° (ESE) 23:40:22 437.425
LO-87 16 Oct 23:40:51 23:44:21 52° 260° (W) 23:47:54 145.935 - 145.965
SPROUT 16 Oct 23:57:43 00:01:37 35° 69° (ENE) 00:05:33 437.525
O/OREOS (USA 219) 16 Oct 23:57:45 23:59:00 11° 315° (NW) 00:00:16 437.305
ESTCUBE 1 17 Oct 00:04:25 00:08:47 50° 260° (W) 00:13:11 437.505/2401.250
BEESAT 2 17 Oct 00:11:45 00:14:35 19° 248° (WSW) 00:17:24 435.950
VELOX 1 17 Oct 00:11:51 00:15:52 36° 69° (ENE) 00:19:53 145.980
RS-15 17 Oct 00:18:18 00:28:08 30° 102° (ESE) 00:37:57 29.354- 29.394
UNISAT 6 17 Oct 00:26:01 00:28:49 16° 299° (WNW) 00:31:33 437.425
UKube-1 17 Oct 00:30:56 00:31:40 10° 58° (ENE) 00:32:23 .
EO-79 17 Oct 00:34:20 00:38:21 38° 98° (E) 00:42:19 145.935-145.965
POLYITAN 1 17 Oct 00:37:52 00:41:57 42° 98° (E) 00:45:59 437.675
TIGRISAT 17 Oct 00:42:43 00:44:36 12° 301° (WNW) 00:46:29 435.000
AO-85 17 Oct 00:56:57 00:58:59 13° 251° (WSW) 01:01:05 145.980
QB50P2 17 Oct 00:57:42 01:02:00 78° 102° (ESE) 01:06:15 145.880/145.840
AIST 2D 17 Oct 00:58:43 01:01:49 31° 289° (WNW) 01:04:53 435.315
NANOSAT C BR1 17 Oct 01:05:05 01:09:22 75° 102° (ESE) 01:13:36 145.865
PRISM 17 Oct 01:10:08 01:10:52 10° 301° (WNW) 01:11:35 437.425
DUCHIFAT 1 17 Oct 01:18:07 01:22:24 89° 293° (WNW) 01:26:37 145.980
50 SAT 17 Oct 01:20:28 01:23:39 56° 74° (ENE) 01:26:52 437.505
DX 1 17 Oct 01:30:24 01:34:40 64° 73° (ENE) 01:38:59 434.975-435.025
SPROUT 17 Oct 01:34:15 01:37:36 22° 266° (W) 01:40:58 437.525
BUGSAT 1 17 Oct 01:41:36 01:45:40 42° 99° (E) 01:49:40 437.445
MOZHAYETS 4 17 Oct 01:48:28 01:49:22 11° 58° (ENE) 01:50:18
VELOX 1 17 Oct 01:48:58 01:52:24 22° 266° (W) 01:55:52 145.980
Oscar 19 17 Oct 01:53:08 01:57:35 29° 95° (E) 02:02:00 437.125/150
Gurwin Techsat 1B 17 Oct 01:53:43 01:57:44 21° 92° (E) 02:01:44 435.225
BEESAT 17 Oct 01:57:27 01:59:43 13° 58° (ENE) 02:01:58 436.000
UKube-1 17 Oct 02:02:40 02:06:58 90° 8° (N) 02:11:18 .
EO-79 17 Oct 02:10:38 02:13:51 21° 295° (WNW) 02:17:04 145.935-145.965
POLYITAN 1 17 Oct 02:14:20 02:17:26 20° 296° (WNW) 02:20:30 437.675
RS-15 17 Oct 02:26:54 02:39:16 85° 305° (NW) 02:51:38 29.354- 29.394
QB50P2 17 Oct 02:35:38 02:37:09 12° 300° (WNW) 02:38:41 145.880/145.840
NANOSAT C BR1 17 Oct 02:42:49 02:44:27 12° 300° (WNW) 02:46:05 145.865
M-CUBED/EXP-1 PRIME 17 Oct 03:04:18 03:07:43 68° 290° (WNW) 03:11:21 437.505
DX 1 17 Oct 03:09:21 03:11:16 13° 270° (W) 03:13:12 434.975-435.025
ITUPSAT 1 17 Oct 03:13:53 03:18:37 65° 73° (ENE) 03:23:25 437.325
AO-7 17 Oct 03:16:03 03:22:08 22° 91° (E) 03:28:11 .
BUGSAT 1 17 Oct 03:17:41 03:20:41 19° 296° (WNW) 03:23:42 437.445
MOZHAYETS 4 17 Oct 03:21:06 03:25:44 82° 75° (ENE) 03:30:24
CUBESAT XI-V 17 Oct 03:23:28 03:26:56 21° 64° (ENE) 03:30:23 437.345
BEESAT 17 Oct 03:32:00 03:36:47 84° 255° (WSW) 03:41:37 436.000
Oscar 19 17 Oct 03:32:16 03:36:57 37° 293° (WNW) 03:41:37 437.125/150
Gurwin Techsat 1B 17 Oct 03:32:49 03:38:00 53° 290° (WNW) 03:43:09 435.225
KKS-1 17 Oct 03:43:19 03:44:18 11° 58° (ENE) 03:45:17 437.445
NO-84 17 Oct 03:53:24 03:56:26 19° 126° (SE) 03:59:23 435.350 FM
ITAMSAT 1 17 Oct 03:56:36 04:01:01 27° 95° (E) 04:05:24 435.822/435.867
STARS 17 Oct 04:26:03 04:27:49 12° 59° (ENE) 04:29:35 437.465
RS-15 17 Oct 04:42:36 04:53:44 37° 333° (NNW) 05:04:44 29.354- 29.394
ITUPSAT 1 17 Oct 04:54:08 04:56:53 15° 270° (W) 04:59:39 437.325
CUBESAT XI-V 17 Oct 04:59:33 05:03:59 45° 261° (W) 05:08:27 437.345
MOZHAYETS 4 17 Oct 05:02:13 05:03:28 11° 272° (W) 05:04:44
AO-7 17 Oct 05:07:28 05:15:48 84° 290° (WNW) 05:24:08 .
KKS-1 17 Oct 05:15:41 05:20:07 88° 75° (ENE) 05:24:35 437.445
NO-84 17 Oct 05:29:09 05:33:28 77° 323° (NW) 05:37:38 435.350 FM
ITAMSAT 1 17 Oct 05:35:41 05:40:35 42° 292° (WNW) 05:45:29 435.822/435.867
STARS 17 Oct 05:59:08 06:03:31 79° 257° (WSW) 06:07:57 437.465
STRAND 1 17 Oct 05:59:57 06:02:24 14° 57° (ENE) 06:04:51 437.568
XW-2C 17 Oct 06:11:16 06:13:27 15° 91° (E) 06:15:39 145.795 - 145.815
DOVE 4 17 Oct 06:14:13 06:19:06 77° 102° (ESE) 06:24:15 437.250
O/OREOS (USA 219) 17 Oct 06:43:38 06:47:48 32° 58° (ENE) 06:51:56 437.305
LilacSat-2 17 Oct 06:55:39 06:59:22 54° 100° (E) 07:03:02 437.200
HO-68 17 Oct 06:57:49 07:03:01 21° 90° (E) 07:08:09 435.675
XW-2F 17 Oct 06:58:25 07:02:04 50° 100° (E) 07:05:40 145.980 - 146.000
RS-15 17 Oct 07:00:49 07:10:58 28° 7° (N) 07:20:46 29.354- 29.394
AO-7 17 Oct 07:01:31 07:07:27 22° 311° (NW) 07:13:22 .
KAITUO 1B 17 Oct 07:03:06 07:06:39 44° 99° (E) 07:10:10 145.475/437.950
XW-2D 17 Oct 07:07:45 07:11:30 75° 102° (ESE) 07:15:14 145.860 - 145.880
NO-84 17 Oct 07:07:57 07:11:24 24° 342° (NNW) 07:14:43 435.350 FM
CUTE 1.7 + AOD 2 17 Oct 07:13:05 07:15:58 18° 92° (E) 07:18:49 437.475
CUTE-I 17 Oct 07:17:55 07:23:16 65° 101° (ESE) 07:28:37 437.470
XW-2B 17 Oct 07:21:05 07:24:50 79° 285° (WNW) 07:28:34 145.730 - 145.750
NUDT-PHONESAT 17 Oct 07:23:25 07:27:06 79° 102° (ESE) 07:30:44 437.300
SEEDS 17 Oct 07:27:40 07:30:12 16° 91° (E) 07:32:44 437.485
CUBEBUG 2 17 Oct 07:35:16 07:38:43 20° 91° (E) 07:42:05 437.445
STRAND 1 17 Oct 07:35:41 07:40:49 89° 71° (ENE) 07:46:00 437.568
XW-2C 17 Oct 07:44:18 07:47:49 39° 288° (WNW) 07:51:19 145.795 - 145.815
DOVE 4 17 Oct 07:53:32 07:56:15 15° 298° (WNW) 07:59:01 437.250
FO-29 17 Oct 07:58:12 08:02:24 25° 61° (ENE) 08:06:48 435.910
AAUSAT CUBESAT 2 17 Oct 08:02:34 08:05:14 17° 92° (E) 08:07:55 437.432
YUBILEINY 17 Oct 08:06:56 08:08:10 10° 70° (ENE) 08:09:24 435.215
SO-50 17 Oct 08:07:55 08:12:20 62° 122° (ESE) 08:16:47 436.795
ZACube-1 17 Oct 08:07:59 08:09:58 13° 88° (E) 08:11:55 437.345
XW-2A 17 Oct 08:20:25 08:23:28 31° 97° (E) 08:26:28 145.665 - 145.685
UWE-3 17 Oct 08:20:34 08:24:41 32° 95° (E) 08:28:41 435.000/436.395/437.385
O/OREOS (USA 219) 17 Oct 08:23:09 08:27:07 29° 256° (WSW) 08:31:02 437.305
TIGRISAT 17 Oct 08:30:40 08:32:09 11° 58° (ENE) 08:33:40 435.000
LilacSat-2 17 Oct 08:31:33 08:33:11 12° 297° (WNW) 08:34:49 437.200
XW-2F 17 Oct 08:34:00 08:35:45 13° 296° (WNW) 08:37:29 145.980 - 146.000
KAITUO 1B 17 Oct 08:38:17 08:40:16 14° 296° (WNW) 08:42:14 145.475/437.950
HO-68 17 Oct 08:44:14 08:51:28 79° 289° (WNW) 08:58:39 435.675
NO-84 17 Oct 08:47:08 08:49:54 17° 3° (N) 08:52:33 435.350 FM
CUTE 1.7 + AOD 2 17 Oct 08:48:00 08:51:58 42° 289° (WNW) 08:55:56 437.475
Oscar 11 17 Oct 08:50:05 08:53:25 22° 93° (E) 08:56:43 .
CUTE-I 17 Oct 08:59:02 09:02:49 20° 300° (WNW) 09:06:36 437.470
SEEDS 17 Oct 09:02:08 09:06:08 47° 288° (WNW) 09:10:08 437.485
CUBEBUG 2 17 Oct 09:11:04 09:15:34 45° 289° (WNW) 09:19:55 437.445
RS-15 17 Oct 09:15:31 09:27:14 51° 40° (NE) 09:38:17 29.354- 29.394
PCSat 17 Oct 09:18:06 09:23:21 54° 115° (ESE) 09:28:38 145.827
STRAND 1 17 Oct 09:19:02 09:20:42 11° 273° (W) 09:22:22 437.568
AO-73 17 Oct 09:22:25 09:26:50 70° 101° (ESE) 09:31:07 145.935
Tancredo 1 17 Oct 09:28:19 09:29:25 14° 138° (SE) 09:30:31 437.200
AAUSAT CUBESAT 2 17 Oct 09:36:59 09:40:54 43° 288° (WNW) 09:44:48 437.432
FO-29 17 Oct 09:42:17 09:47:13 45° 262° (W) 09:52:29 435.910
ZACube-1 17 Oct 09:42:18 09:46:42 64° 286° (WNW) 09:50:59 437.345
UNISAT 6 17 Oct 09:47:40 09:52:15 66° 73° (ENE) 09:56:55 437.425
SO-50 17 Oct 09:49:43 09:53:10 21° 321° (NW) 09:56:40 436.795
XW-2A 17 Oct 09:53:53 09:55:55 15° 294° (WNW) 09:57:56 145.665 - 145.685
YUBILEINY 17 Oct 09:54:30 10:02:56 59° 91° (E) 10:11:25 435.215
UWE-3 17 Oct 09:57:09 10:01:00 27° 293° (WNW) 10:04:44 435.000/436.395/437.385
DELFI C3 17 Oct 10:02:55 10:06:21 28° 96° (E) 10:09:47 145.870
TIGRISAT 17 Oct 10:03:26 10:08:03 87° 79° (E) 10:12:47 435.000
EO-88 17 Oct 10:06:09 10:08:19 15° 92° (E) 10:10:29 145.990 - 145.960
Max Valier Satellite 17 Oct 10:07:16 10:10:10 22° 94° (E) 10:13:03 145.860
PRISM 17 Oct 10:22:24 10:26:25 71° 74° (ENE) 10:30:29 437.425
NO-84 17 Oct 10:24:46 10:28:17 31° 24° (NNE) 10:31:32 435.350 FM
Oscar 11 17 Oct 10:25:42 10:29:38 36° 290° (WNW) 10:33:35 .
HO-68 17 Oct 10:33:36 10:38:06 18° 309° (NW) 10:42:35 435.675
Tancredo 1 17 Oct 10:59:23 11:01:04 29° 335° (NNW) 11:02:46 437.200
AO-73 17 Oct 11:00:22 11:02:27 13° 300° (WNW) 11:04:31 145.935
PCSat 17 Oct 11:02:25 11:07:02 28° 315° (NW) 11:11:42 145.827
LO-87 17 Oct 11:08:05 11:09:01 11° 90° (E) 11:09:56 145.935 - 145.965
UNISAT 6 17 Oct 11:26:59 11:29:25 14° 271° (W) 11:31:52 437.425
EO-79 17 Oct 11:27:55 11:31:48 35° 69° (ENE) 11:35:42 145.935-145.965
RS-15 17 Oct 11:28:30 11:40:03 60° 246° (WSW) 11:51:00 29.354- 29.394
POLYITAN 1 17 Oct 11:31:33 11:35:31 38° 70° (ENE) 11:39:31 437.675
AIST 2D 17 Oct 11:33:30 11:37:00 73° 259° (WSW) 11:40:32 435.315
DELFI C3 17 Oct 11:37:47 11:40:59 24° 292° (WNW) 11:44:11 145.870
EO-88 17 Oct 11:38:46 11:42:08 36° 288° (WNW) 11:45:28 145.990 - 145.960
Max Valier Satellite 17 Oct 11:40:51 11:43:58 26° 291° (WNW) 11:47:04 145.860
nSIGHT-1 17 Oct 11:41:35 11:44:39 46° 142° (SE) 11:47:45 .
TIGRISAT 17 Oct 11:44:39 11:45:23 10° 273° (W) 11:46:07 435.000
QB50P2 17 Oct 11:51:14 11:55:28 69° 75° (ENE) 11:59:45 145.880/145.840
YUBILEINY 17 Oct 11:52:35 12:00:12 33° 292° (WNW) 12:07:54 435.215
ESTCUBE 1 17 Oct 11:55:17 11:59:12 29° 96° (E) 12:03:06 437.505/2401.250
NANOSAT C BR1 17 Oct 11:58:05 12:02:17 66° 74° (ENE) 12:06:32 145.865
NO-84 17 Oct 12:02:13 12:05:48 46° 225° (SW) 12:09:05 435.350 FM
ISS 17 Oct 12:05:37 12:08:51 68° 146° (SE) 12:12:06 437.550
DUCHIFAT 1 17 Oct 12:10:46 12:15:00 80° 75° (ENE) 12:19:17 145.980
M-CUBED/EXP-1 PRIME 17 Oct 12:19:06 12:21:03 15° 60° (ENE) 12:22:57 437.505
BUGSAT 1 17 Oct 12:32:27 12:36:16 36° 70° (ENE) 12:40:09 437.445
LO-87 17 Oct 12:39:11 12:42:45 53° 286° (WNW) 12:46:16 145.935 - 145.965
BEESAT 3 17 Oct 12:50:37 12:54:02 27° 115° (ESE) 12:57:27 437.485
EO-79 17 Oct 13:04:18 13:07:38 22° 266° (W) 13:11:00 145.935-145.965
POLYITAN 1 17 Oct 13:08:12 13:11:25 20° 267° (W) 13:14:39 437.675
Oscar 19 17 Oct 13:11:14 13:16:13 50° 70° (ENE) 13:21:13 437.125/150
Gurwin Techsat 1B 17 Oct 13:16:01 13:20:56 40° 68° (ENE) 13:25:52 435.225
SPROUT 17 Oct 13:16:55 13:21:09 54° 100° (E) 13:25:22 437.525
nSIGHT-1 17 Oct 13:18:03 13:21:01 33° 341° (NNW) 13:23:59 .
QB50P2 17 Oct 13:30:19 13:31:43 11° 271° (W) 13:33:08 145.880/145.840
ESTCUBE 1 17 Oct 13:32:05 13:35:57 29° 293° (WNW) 13:39:48 437.505/2401.250
AO-85 17 Oct 13:32:33 13:34:52 15° 111° (ESE) 13:37:12 145.980
VELOX 1 17 Oct 13:35:53 13:40:17 58° 101° (ESE) 13:44:39 145.980
NANOSAT C BR1 17 Oct 13:36:50 13:38:26 12° 271° (W) 13:40:02 145.865
ISS 17 Oct 13:42:38 13:45:33 29° 345° (NNW) 13:48:28 437.550
RS-15 17 Oct 13:45:50 13:49:34 12° 268° (W) 13:53:16 29.354- 29.394
UKube-1 17 Oct 13:49:39 13:51:40 13° 90° (E) 13:53:42 .
M-CUBED/EXP-1 PRIME 17 Oct 13:52:03 13:55:16 36° 255° (WSW) 13:58:22 437.505
BEESAT 2 17 Oct 14:02:43 14:06:34 47° 119° (ESE) 14:10:29 435.950
Tancredo 1 17 Oct 14:04:36 14:05:30 12° 13° (NNE) 14:06:25 437.200
BUGSAT 1 17 Oct 14:08:33 14:11:43 21° 267° (W) 14:14:56 437.445
50 SAT 17 Oct 14:10:01 14:13:09 39° 99° (E) 14:16:16 437.505
AO-7 17 Oct 14:16:31 14:23:55 38° 57° (ENE) 14:31:19 .
BEESAT 3 17 Oct 14:27:50 14:31:29 32° 313° (NW) 14:35:09 437.485
Oscar 19 17 Oct 14:51:52 14:55:48 22° 267° (W) 14:59:45 437.125/150
DX 1 17 Oct 14:52:45 14:57:08 85° 288° (WNW) 15:01:31 434.975-435.025
SPROUT 17 Oct 14:53:59 14:56:37 16° 297° (WNW) 14:59:14 437.525
nSIGHT-1 17 Oct 14:55:23 14:57:56 21° 1° (N) 15:00:28 .
Gurwin Techsat 1B 17 Oct 14:56:25 15:00:58 29° 265° (W) 15:05:33 435.225
SO-50 17 Oct 14:58:00 15:00:58 17° 35° (NE) 15:03:56 436.795
AO-85 17 Oct 15:11:01 15:14:48 50° 309° (NW) 15:18:43 145.980
VELOX 1 17 Oct 15:13:34 15:16:15 16° 298° (WNW) 15:18:56 145.980
ITUPSAT 1 17 Oct 15:14:13 15:16:49 14° 90° (E) 15:19:25 437.325
MOZHAYETS 4 17 Oct 15:15:36 15:18:34 17° 91° (E) 15:21:30
ITAMSAT 1 17 Oct 15:15:51 15:20:49 48° 69° (ENE) 15:25:50 435.822/435.867
ISS 17 Oct 15:20:03 15:22:43 22° 5° (N) 15:25:23 437.550
UKube-1 17 Oct 15:23:49 15:28:05 62° 288° (WNW) 15:32:21 .
BEESAT 17 Oct 15:31:08 15:34:49 22° 93° (E) 15:38:28 436.000
Tancredo 1 17 Oct 15:35:33 15:37:20 89° 23° (NNE) 15:39:07 437.200
BEESAT 2 17 Oct 15:41:22 15:44:32 22° 318° (NW) 15:47:44 435.950
50 SAT 17 Oct 15:43:37 15:45:08 13° 295° (WNW) 15:46:39 437.505
AO-7 17 Oct 16:08:17 16:16:23 56° 257° (WSW) 16:24:32 .
PCSat 17 Oct 16:22:10 16:25:06 14° 33° (NNE) 16:28:01 145.827
nSIGHT-1 17 Oct 16:31:48 16:34:49 37° 21° (NNE) 16:37:50 .
DX 1 17 Oct 16:32:17 16:32:35 10° 302° (WNW) 16:32:54 434.975-435.025
